This demonstration page uses our WeatherBlox Daily Observations layout. Learn more.

Left ArrowRight Arrow

Hourly Observations for May 28, 2018

Temp ( °F °C ) Dew Point ( °F °C ) Humidity (%) Winds ( mph kmh ) Pressure ( in mb ) Visibility ( mi km ) Precip ( " mm )
12:53 am 00:53 Clear 68 20 56 13.3 65 65 N 3 6 29.92 1013 10 16 0.00 0.00
1:53 am 01:53 Clear 67 19.4 55 12.8 66 66 W 5 7 29.93 1014 10 16 0.00 0.00
2:53 am 02:53 Clear 68 20 54 12.2 61 61 N 6 9 29.94 1014 10 16 0.00 0.00
3:53 am 03:53 Clear 72 22.2 52 11.1 50 50 NNW 7 11 29.93 1014 10 16 0.00 0.00
4:53 am 04:53 Clear 71 21.7 52 11.1 51 51 NNW 6 9 29.94 1014 10 16 0.00 0.00
5:53 am 05:53 Sunny 68 20 53 11.7 59 59 NNW 5 7 29.95 1014 10 16 0.00 0.00
6:53 am 06:53 Sunny 68 20 55 12.8 63 63 W 3 6 29.96 1015 10 16 0.00 0.00
7:53 am 07:53 Sunny 76 24.4 54 12.2 47 47 N 6 9 29.96 1015 10 16 0.00 0.00
8:53 am 08:53 Sunny 80 26.7 54 12.2 41 41 N 10 17 29.96 1015 10 16 0.00 0.00
9:53 am 09:53 Sunny 84 28.9 54 12.2 36 36 NNW 9 15 29.95 1014 10 16 0.00 0.00
10:53 am 10:53 Sunny 87 30.6 50 10 28 28 N 12 19 29.94 1014 10 16 0.00 0.00
11:53 am 11:53 Sunny 90 32.2 51 10.6 26 26 N 8 13 29.93 1014 10 16 0.00 0.03
12:53 pm 12:53 Sunny with Light Rain 91 32.8 49 9.4 24 24 NW 10 17 29.91 1013 10 16 0.00 0.03
1:53 pm 13:53 Sunny 93 33.9 48 8.9 21 21 N 7 11 29.89 1012 10 16 0.00 0.03
2:53 pm 14:53 Sunny 96 35.6 47 8.3 19 19 N 7 11 29.86 1011 10 16 0.00 0.00
3:53 pm 15:53 Sunny 96 35.6 45 7.2 17 17 VRB 7 11 29.84 1011 10 16 0.00 0.00
4:53 pm 16:53 Sunny 98 36.7 43 6.1 15 15 N 10 17 29.82 1010 10 16 0.00 0.00
5:53 pm 17:53 Sunny 98 36.7 40 4.4 13 13 N 10 17 29.80 1009 10 16 0.00 0.00
6:53 pm 18:53 Sunny 96 35.6 42 5.6 15 15 N 8 13 29.78 1008 10 16 0.00 0.00
7:53 pm 19:53 Sunny 93 33.9 45 7.2 19 19 N 5 7 29.78 1008 10 16 0.00 0.00
8:53 pm 20:53 Clear 85 29.4 48 8.9 28 28 N 5 7 29.78 1008 10 16 0.00 0.00
9:53 pm 21:53 Clear 77 25 51 10.6 40 40 Calm 29.80 1009 10 16 0.00 0.00
10:53 pm 22:53 Clear 78 25.6 47 8.3 33 33 NW 7 11 29.81 1010 10 16 0.00 0.00
11:53 pm 23:53 Clear 71 21.7 54 12.2 55 55 N 3 6 29.82 1010 10 16 0.00 0.00

Powered by AerisWeather